Location: Morlupo
(42.1333°N, 12.5000°E)
Time: 16:04:45
(UTC+00:00)

Cosmos 1025 Rocket - Pass Details

Date: 18 September 2020
Orbit: 595 x 617 km, 82.5° (Epoch: 26 October)

Event Time Altitude Azimuth Distance (km) Brightness Sun altitude
Rises 18:47:16 0° 353° (N) 2,885 6.9 -17.8°
Reaches altitude 10° 18:49:29 10° 355° (N) 1,979 6.0 -18.2°
Maximum altitude 18:53:52 78° 81° (E) 634 2.9 -19.0°
Enters shadow 18:56:07 28° 164° (SSE) 1,148 4.1 -19.4°
